#timestamp,LO_Frequency,Hit,StdDev 
1621130415.8,286046999.5,N
1621130435.6,286046997.3,N
1621130455.4,286046997.9,N
1621130475.3,286046997.4,N
1621130495.1,286046995.0,N
1621130515.9,286046995.4,N
1621130535.7,286046996.1,N
1621130555.5,286046998.0,N
1621130575.4,286046995.1,N
1621130595.2,286046993.6,Y
1621130615.1,286046994.0,P
1621130616.0,286046994.0,N
1621130635.8,286046994.3,N
1621130655.6,286046995.9,N
1621130675.5,286046995.5,N
1621130695.3,286046994.2,Y
1621130715.2,286046996.9,P
1621130735.9,286046995.5,P
1621130755.7,286046994.9,P
1621130775.6,286046996.1,Y
1621130795.4,286047002.8,P
1621130815.2,286047002.4,N
1621130835.1,286047001.9,N
1621130836.0,286047001.9,N
1621130855.8,286047002.3,N
1621130875.7,286047003.3,N
1621130895.5,286047003.2,N
1621130915.3,286047005.1,N
1621130935.2,286047003.8,N
1621130955.0,286047001.5,N
1621130955.9,286047001.5,N
1621130975.7,286047001.8,N
1621130995.6,286047002.2,N
1621131015.4,286047002.2,N
1621131035.3,286047001.1,N
1621131055.1,286046998.8,N
1621131056.0,286046998.8,N
1621131075.8,286047000.6,N
1621131095.7,286046998.8,N
1621131115.5,286046998.5,N
1621131135.3,286046998.1,N
1621131155.2,286046998.1,N
1621131175.0,286046998.2,N
1621131175.9,286046998.2,N
1621131195.8,286046998.3,N
1621131215.6,286046998.4,N
1621131235.4,286046998.5,N
1621131255.3,286047000.4,N
1621131275.1,286047000.2,N
1621131295.8,286047001.1,N
1621131315.7,286046998.7,N
1621131335.5,286047002.8,N
1621131355.4,286047002.1,N
1621131375.2,286047001.5,N
1621131395.0,286047005.1,N
1621131395.9,286047005.1,N
1621131415.8,286047004.1,N
1621131435.6,286047004.3,N
1621131455.4,286047003.8,N
1621131475.3,286047004.3,N
1621131495.1,286047003.3,N
1621131515.9,286047005.0,N
1621131535.7,286047004.6,N
1621131555.5,286047006.5,N
1621131575.4,286047009.2,Y
1621131595.2,286047007.4,P
1621131615.0,286047004.7,N
1621131615.9,286047004.7,N
1621131635.8,286047007.6,Y
1621131655.6,286046998.7,P
1621131675.5,286047001.0,N
1621131695.3,286047000.7,N
1621131715.1,286046996.6,N
1621131735.9,286046999.0,N
1621131755.7,286046999.4,N
1621131775.6,286046998.7,N
1621131795.4,286047001.5,N
1621131815.2,286047001.8,N
1621131835.1,286047000.2,N
1621131836.0,286047000.2,N
1621131855.8,286047003.9,N
1621131875.6,286047003.1,N
1621131895.5,286047002.0,N
1621131915.3,286047003.6,N
1621131935.2,286047003.9,N
1621131955.9,286047001.4,N
1621131975.7,286047001.3,N
1621131995.6,286047001.2,N
1621132015.4,286046996.7,N
1621132035.3,286046999.1,N
1621132055.1,286046999.0,N
1621132056.0,286046999.0,N
1621132075.8,286047001.0,N
1621132095.7,286047001.6,N
1621132115.5,286047000.3,N
1621132135.3,286046998.1,N
1621132155.2,286047002.2,N
1621132175.0,286047000.4,N
1621132175.9,286047000.4,N
1621132195.8,286047000.8,N
1621132215.6,286046998.6,N
1621132235.4,286046997.3,N
1621132255.3,286047000.9,N
1621132275.1,286046996.5,N
1621132295.8,286046998.5,N
1621132315.7,286047002.8,N
1621132335.5,286046999.8,N
1621132355.4,286047002.3,N
1621132375.2,286047003.9,N
1621132395.0,286047003.3,N
1621132395.9,286047003.3,N
1621132415.8,286047005.6,N
1621132435.6,286047005.7,N
1621132455.4,286047003.5,N
1621132475.3,286047003.7,N
1621132495.1,286047003.8,N
1621132515.9,286047003.6,N
1621132535.7,286047003.5,N
1621132555.5,286047002.1,N
1621132575.4,286047003.4,N
1621132595.2,286047003.4,N
1621132615.0,286047006.0,N
1621132615.9,286047006.0,N
1621132635.8,286047003.1,N
1621132655.6,286047005.4,N
1621132675.5,286047007.4,N
1621132695.3,286047004.7,N
1621132715.1,286047006.5,N
1621132735.9,286047007.4,N
1621132755.7,286047007.5,N
1621132775.6,286047005.5,N
1621132795.4,286047004.7,N
1621132815.2,286047004.1,N
1621132835.1,286047002.5,N
1621132836.0,286047002.5,N
1621132855.8,286047003.0,N
1621132875.6,286047003.0,N
1621132895.5,286047004.9,Y
1621132915.3,286047003.7,P
1621132935.2,286047003.9,P
1621132955.0,286047003.7,P
1621132955.9,286047003.7,Y
1621132975.7,286046998.7,P
1621132995.6,286046998.3,N
1621133015.4,286046998.3,N
1621133035.3,286046999.2,N
1621133055.1,286046996.8,N
1621133075.8,286046997.5,N
1621133095.7,286046996.5,N
1621133115.5,286046998.0,N
1621133135.4,286046996.2,N
1621133155.2,286046996.1,N
1621133175.0,286046996.4,N
1621133175.9,286046996.4,N
1621133195.8,286046998.0,N
1621133215.6,286046996.1,N
1621133235.4,286046995.1,N
1621133255.3,286046997.2,N
1621133275.1,286046994.9,N
1621133295.9,286046997.9,N
1621133315.7,286046995.4,N
1621133335.5,286046997.5,N
1621133355.4,286046997.6,N
1621133375.2,286046997.8,N
1621133395.1,286046997.0,N
1621133396.0,286046997.0,N
1621133415.8,286047011.9,Y
1621133435.6,286047001.1,P
1621133455.5,286047000.0,N
1621133475.3,286046997.0,N
1621133495.2,286046999.2,N
1621133515.9,286046997.3,N
1621133535.7,286046997.7,N
1621133555.6,286046996.3,N
1621133575.4,286046991.8,Y
1621133595.2,286046995.3,P
1621133615.1,286046997.3,N
1621133616.0,286046997.3,N
1621133635.8,286046996.1,Y
1621133655.7,286046999.9,P
1621133675.5,286047002.5,N
1621133695.3,286047003.9,N
1621133715.2,286047004.1,N
1621133735.0,286047002.0,N
1621133735.9,286047002.0,N
1621133755.8,286047003.7,N
1621133775.6,286047003.6,N
1621133795.4,286047004.8,N
1621133815.3,286047001.4,N
1621133835.1,286047003.3,N
1621133855.9,286047005.2,N
1621133875.7,286047001.3,N
1621133895.5,286047000.1,N
1621133915.4,286047002.1,N
1621133935.2,286047002.4,N
1621133955.1,286047002.7,N
1621133956.0,286047002.7,N
1621133975.8,286047006.0,Y
1621133995.6,286047000.1,P
